Location: Roc des P�zouls
(43.9667°N, 3.5500°E)
Time: 09:14:25
(UTC+00:00)

Gbstr 26 Del rocket - Pass Details

Date: 14 November 2019
Orbit: 493 x 1264 km, 51.8° (Epoch: 06 December)

Event Time Altitude Azimuth Distance (km) Brightness Sun altitude
Exits shadow 04:21:06 41° 148° (SSE) 750 3.6 -24.8°
Maximum altitude 04:21:16 41° 141° (SE) 745 3.7 -24.7°
Drops below altitude 10° 04:24:48 10° 69° (ENE) 1,690 6.2 -24.1°
Sets 04:27:00 0° 62° (ENE) 2,575 7.2 -23.7°
